Weather History for Cumberland, MD

Change the Weather History Date:

Monday, October 22, 2012

  Actual Average (KMRB) Record (KMRB)
Temperature  
Mean Temperature 53 °F 52 °F  
Max Temperature 73 °F 63 °F 87 °F (1979)
Min Temperature 33 °F 40 °F 26 °F (1974)
Degree Days  
Heating Degree Days 12 13  
Month to date heating degree days 222  
Since 1 July heating degree days 313  
Cooling Degree Days 0 0  
Month to date cooling degree days 8  
Year to date cooling degree days 893  
Growing Degree Days 3 (Base 50)    
Moisture  
Dew Point 43 °F    
Average Humidity 76    
Maximum Humidity 100    
Minimum Humidity 38    
Precipitation  
Precipitation 0.00 in 0.10 in 3.39 in (1956)
Month to date precipitation 2.17  
Year to date precipitation 31.98  
Sea Level Pressure  
Sea Level Pressure 30.19 in    
Wind  
Wind Speed 1 mph (SSW)    
Max Wind Speed 7 mph    
Max Gust Speed -    
Visibility 8 miles    
Events      
T = Trace of Precipitation, MM = Missing Value Source: NWS Daily Summary

Daily Weather History Graph

Daily Weather History Graph

Search for Another Location

Airport:

Trip Planner

Search our weather history database for the weather conditions in past years. The results will help you decide how hot, cold, wet, or windy it might be!

Date:

Astronomy

Oct. 22, 2012 Rise Set
Actual Time 7:32 AM EDT 6:25 PM EDT
Civil Twilight 7:05 AM EDT 6:52 PM EDT
Nautical Twilight 6:34 AM EDT 7:24 PM EDT
Astronomical Twilight 6:02 AM EDT 7:55 PM EDT
Moon 2:30 PM EDT (10/22) 12:19 AM EDT (10/22)
Length of Visible Light 11h 47m
Length of Day
10h 52m
First Quarter, 56% of the Moon is Illuminated
Oct 22
First Quarter
Oct 29
Full
Nov 6
Last Quarter
Nov 13
New
Nov 20
First Quarter

Hourly Weather History & Observations

Time (EDT) Temp. Windchill Dew Point Humidity Pressure Visibility Wind Dir Wind Speed Gust Speed Precip Events Conditions
12:04 AM 41.0 °F - 39.2 °F 93% 30.19 in 10.0 mi Calm Calm - N/A   Clear
12:47 AM 41.0 °F - 39.2 °F 93% 30.20 in 10.0 mi Calm Calm - N/A   Clear
1:08 AM 37.4 °F - 37.4 °F 100% 30.19 in 10.0 mi Calm Calm - N/A   Clear
1:29 AM 37.4 °F - 37.4 °F 100% 30.20 in 10.0 mi Calm Calm - N/A   Clear
1:51 AM 37.4 °F - 37.4 °F 100% 30.20 in 7.0 mi Calm Calm - N/A   Clear
2:12 AM 35.6 °F - 35.6 °F 100% 30.20 in 0.8 mi Calm Calm - N/A   Unknown
2:33 AM 35.6 °F - 35.6 °F 100% 30.20 in 4.0 mi Calm Calm - N/A   Clear
2:55 AM 37.4 °F - 37.4 °F 100% 30.20 in 7.0 mi Calm Calm - N/A   Clear
3:16 AM 35.6 °F - 35.6 °F 100% 30.20 in 7.0 mi Calm Calm - N/A   Clear
3:37 AM 35.6 °F - 35.6 °F 100% 30.20 in 7.0 mi Calm Calm - N/A   Clear
3:59 AM 35.6 °F - 35.6 °F 100% 30.20 in 5.0 mi Calm Calm - N/A   Clear
4:20 AM 35.6 °F - 35.6 °F 100% 30.20 in 1.5 mi Calm Calm - N/A   Unknown
4:41 AM 35.6 °F - 35.6 °F 100% 30.21 in 1.0 mi Calm Calm - N/A   Unknown
5:02 AM 33.8 °F - 33.8 °F 100% 30.22 in 1.5 mi Calm Calm - N/A   Unknown
5:45 AM 33.8 °F - 33.8 °F 100% 30.22 in 4.0 mi Calm Calm - N/A   Clear
6:06 AM 33.8 °F - 33.8 °F 100% 30.23 in 5.0 mi Calm Calm - N/A   Clear
6:28 AM 33.8 °F - 33.8 °F 100% 30.24 in 7.0 mi Calm Calm - N/A   Clear
6:49 AM 33.8 °F - 33.8 °F 100% 30.24 in 5.0 mi Calm Calm - N/A   Clear
7:10 AM 33.8 °F - 33.8 °F 100% 30.25 in 7.0 mi Calm Calm - N/A   Clear
7:32 AM 33.8 °F - 33.8 °F 100% 30.25 in 7.0 mi Calm Calm - N/A   Clear
7:53 AM 33.8 °F - 33.8 °F 100% 30.25 in 7.0 mi Calm Calm - N/A   Clear
8:14 AM 33.8 °F - 33.8 °F 100% 30.26 in 7.0 mi Calm Calm - N/A   Clear
8:35 AM 35.6 °F - 35.6 °F 100% 30.26 in 7.0 mi Calm Calm - N/A   Clear
8:57 AM 35.6 °F - 35.6 °F 100% 30.26 in 5.0 mi Calm Calm - N/A   Clear
9:19 AM 39.2 °F - 39.2 °F 100% 30.26 in 7.0 mi Calm Calm - N/A   Clear
9:43 AM 41.0 °F - 41.0 °F 100% 30.26 in 10.0 mi Calm Calm - N/A   Clear
10:04 AM 42.8 °F - 41.0 °F 93% 30.25 in 10.0 mi Calm Calm - N/A   Clear
10:25 AM 46.4 °F 45.2 °F 42.8 °F 87% 30.25 in 10.0 mi SSE 3.5 mph - N/A   Clear
10:46 AM 46.4 °F 45.2 °F 42.8 °F 87% 30.24 in 10.0 mi SSE 3.5 mph - N/A   Clear
11:08 AM 50.0 °F - 42.8 °F 76% 30.24 in 10.0 mi SSW 4.6 mph - N/A   Clear
11:29 AM 53.6 °F - 44.6 °F 72% 30.23 in 10.0 mi South 3.5 mph - N/A   Clear
11:50 AM 57.2 °F - 42.8 °F 59% 30.23 in 10.0 mi Calm Calm - N/A   Clear
12:11 PM 59.0 °F - 44.6 °F 59% 30.23 in 10.0 mi Calm Calm - N/A   Clear
12:33 PM 62.6 °F - 44.6 °F 52% 30.22 in 10.0 mi Calm Calm - N/A   Clear
12:54 PM 62.6 °F - 44.6 °F 52% 30.20 in 10.0 mi Calm Calm - N/A   Clear
1:15 PM 64.4 °F - 46.4 °F 52% 30.19 in 10.0 mi Calm Calm - N/A   Clear
1:36 PM 68.0 °F - 46.4 °F 46% 30.18 in 10.0 mi Calm Calm - N/A   Clear
1:58 PM 68.0 °F - 46.4 °F 46% 30.17 in 10.0 mi Calm Calm - N/A   Clear
2:19 PM 69.8 °F - 46.4 °F 43% 30.16 in 10.0 mi Calm Calm - N/A   Clear
2:40 PM 71.6 °F - 46.4 °F 41% 30.15 in 10.0 mi Calm Calm - N/A   Clear
3:01 PM 71.6 °F - 44.6 °F 38% 30.14 in 10.0 mi Calm Calm - N/A   Clear
3:23 PM 73.4 °F - 46.4 °F 38% 30.14 in 10.0 mi South 3.5 mph - N/A   Clear
3:44 PM 73.4 °F - 46.4 °F 38% 30.13 in 10.0 mi South 4.6 mph - N/A   Clear
4:05 PM 73.4 °F - 46.4 °F 38% 30.13 in 10.0 mi Calm Calm - N/A   Clear
4:26 PM 73.4 °F - 46.4 °F 38% 30.13 in 10.0 mi Calm Calm - N/A   Clear
4:48 PM 73.4 °F - 46.4 °F 38% 30.13 in 10.0 mi Calm Calm - N/A   Clear
5:09 PM 73.4 °F - 46.4 °F 38% 30.13 in 10.0 mi South 3.5 mph - N/A   Clear
5:30 PM 73.4 °F - 46.4 °F 38% 30.14 in 10.0 mi Calm Calm - N/A   Clear
5:51 PM 71.6 °F - 46.4 °F 41% 30.13 in 10.0 mi SSW 3.5 mph - N/A   Clear
6:13 PM 71.6 °F - 48.2 °F 43% 30.14 in 10.0 mi WSW 5.8 mph - N/A   Clear
6:34 PM 71.6 °F - 50.0 °F 46% 30.14 in 10.0 mi West 6.9 mph - N/A   Clear
6:55 PM 71.6 °F - 50.0 °F 46% 30.15 in 10.0 mi West 5.8 mph - N/A   Clear
7:16 PM 68.0 °F - 50.0 °F 52% 30.15 in 10.0 mi West 3.5 mph - N/A   Clear
7:38 PM 64.4 °F - 50.0 °F 59% 30.15 in 10.0 mi WNW 3.5 mph - N/A   Clear
7:59 PM 60.8 °F - 50.0 °F 68% 30.16 in 10.0 mi Calm Calm - N/A   Clear
8:20 PM 60.8 °F - 50.0 °F 68% 30.16 in 10.0 mi Calm Calm - N/A   Clear
8:41 PM 59.0 °F - 50.0 °F 72% 30.17 in 10.0 mi Calm Calm - N/A   Clear
9:03 PM 59.0 °F - 50.0 °F 72% 30.17 in 10.0 mi Calm Calm - N/A   Clear
9:24 PM 55.4 °F - 50.0 °F 82% 30.16 in 10.0 mi Calm Calm - N/A   Clear
9:45 PM 55.4 °F - 50.0 °F 82% 30.15 in 10.0 mi Calm Calm - N/A   Clear
10:06 PM 55.4 °F - 50.0 °F 82% 30.15 in 10.0 mi Calm Calm - N/A   Clear
10:28 PM 55.4 °F - 50.0 °F 82% 30.15 in 10.0 mi Calm Calm - N/A   Clear
10:49 PM 53.6 °F - 50.0 °F 88% 30.15 in 10.0 mi Calm Calm - N/A   Clear
11:10 PM 53.6 °F - 50.0 °F 88% 30.16 in 10.0 mi Calm Calm - N/A   Clear
11:32 PM 51.8 °F - 50.0 °F 94% 30.16 in 10.0 mi Calm Calm - N/A   Clear
11:53 PM 51.8 °F - 50.0 °F 94% 30.16 in 10.0 mi Calm Calm - N/A   Clear